Private Wetterstation Wechselburg
Wetterdaten: Montag, 08.10.2012
Datum Zeit Temp. +2m Bodentemp. Temp.+5cm Temp. Wind Windchill X Diff Temp. Feuchte +2m Feuchte +5cm Sonnenschein Luftdruck Regen Wind Richtung Richtung Sonnenschein UV Taupunkt Windchill Windben
08.10.2012 00:00 9,3 C 17,4 C 9,3 C 9,3 C 9,2 C 0,0 C 78 % 84 % 0 % 1022,6 hPa 0,0 l/m 4,2 km/h (1 Bft) SW 225 0 min 0,0 UV-I 5,7 C 9,2 C 6,1 km/h (2 Bft)
08.10.2012 00:05 9,3 C 17,4 C 9,3 C 9,2 C 9,1 C 0,0 C 78 % 84 % 0 % 1022,6 hPa 0,0 l/m 4,0 km/h (1 Bft) W 270 0 min 0,0 UV-I 5,7 C 9,1 C 7,2 km/h (2 Bft)
08.10.2012 00:10 9,3 C 17,4 C 9,3 C 9,2 C 9,1 C 0,0 C 78 % 84 % 0 % 1022,6 hPa 0,0 l/m 3,7 km/h (1 Bft) W 270 0 min 0,0 UV-I 5,7 C 9,1 C 3,1 km/h (1 Bft)
08.10.2012 00:15 9,2 C 17,4 C 9,3 C 9,1 C 8,9 C 0,0 C 78 % 84 % 0 % 1022,6 hPa 0,0 l/m 4,0 km/h (1 Bft) SW 225 0 min 0,0 UV-I 5,6 C 8,9 C 7,4 km/h (2 Bft)
08.10.2012 00:20 9,2 C 17,4 C 9,3 C 9,1 C 8,8 C 0,0 C 78 % 84 % 0 % 1023,0 hPa 0,0 l/m 4,5 km/h (1 Bft) W 270 0 min 0,0 UV-I 5,6 C 8,8 C 8,0 km/h (2 Bft)
08.10.2012 00:25 9,3 C 17,4 C 9,2 C 9,1 C 8,7 C 0,0 C 78 % 84 % 0 % 1023,0 hPa 0,0 l/m 4,8 km/h (1 Bft) W-SW 247 0 min 0,0 UV-I 5,7 C 8,3 C 5,0 km/h (1 Bft)
08.10.2012 00:30 9,2 C 17,4 C 9,2 C 9,0 C 8,6 C 0,0 C 78 % 84 % 0 % 1023,0 hPa 0,0 l/m 5,1 km/h (1 Bft) W-SW 247 0 min 0,0 UV-I 5,6 C 8,1 C 9,3 km/h (2 Bft)
08.10.2012 00:35 9,2 C 17,4 C 9,2 C 9,0 C 8,6 C 0,0 C 78 % 83 % 0 % 1023,0 hPa 0,0 l/m 5,0 km/h (1 Bft) SW 225 0 min 0,0 UV-I 5,6 C 8,2 C 6,0 km/h (2 Bft)
08.10.2012 00:41 9,3 C 17,4 C 9,3 C 9,1 C 8,6 C 0,0 C 78 % 83 % 0 % 1022,6 hPa 0,0 l/m 5,0 km/h (1 Bft) N 0 0 min 0,0 UV-I 5,7 C 8,2 C 5,5 km/h (1 Bft)
08.10.2012 00:55 9,3 C 17,4 C 9,2 C 9,0 C 8,4 C 0,0 C 78 % 83 % 0 % 1022,6 hPa 0,0 l/m 5,5 km/h (1 Bft) W-SW 247 0 min 0,0 UV-I 5,7 C 7,8 C 12,1 km/h (2 Bft)
08.10.2012 01:00 9,3 C 17,4 C 9,2 C 9,1 C 8,6 C 0,0 C 78 % 83 % 0 % 1022,6 hPa 0,0 l/m 5,1 km/h (1 Bft) SW 225 0 min 0,0 UV-I 5,7 C 8,1 C 9,3 km/h (2 Bft)
08.10.2012 01:05 9,2 C 17,4 C 9,2 C 9,1 C 8,9 C 0,0 C 78 % 83 % 0 % 1022,6 hPa 0,0 l/m 4,2 km/h (1 Bft) W-SW 247 0 min 0,0 UV-I 5,6 C 8,9 C 6,6 km/h (2 Bft)
08.10.2012 01:10 9,2 C 17,4 C 9,2 C 9,1 C 8,9 C 0,0 C 78 % 83 % 0 % 1022,6 hPa 0,0 l/m 4,2 km/h (1 Bft) SW 225 0 min 0,0 UV-I 5,6 C 8,9 C 5,5 km/h (1 Bft)
08.10.2012 01:15 9,2 C 17,3 C 9,2 C 9,0 C 8,5 C 0,0 C 78 % 83 % 0 % 1022,6 hPa 0,0 l/m 5,3 km/h (1 Bft) W-SW 247 0 min 0,0 UV-I 5,6 C 8,0 C 6,6 km/h (2 Bft)
08.10.2012 01:20 9,2 C 17,3 C 9,2 C 9,0 C 8,6 C 0,0 C 78 % 83 % 0 % 1022,5 hPa 0,0 l/m 5,1 km/h (1 Bft) W-SW 247 0 min 0,0 UV-I 5,6 C 8,1 C 5,6 km/h (1 Bft)
08.10.2012 01:25 9,2 C 17,3 C 9,2 C 9,0 C 8,7 C 0,0 C 78 % 83 % 0 % 1022,5 hPa 0,0 l/m 4,8 km/h (1 Bft) W-SW 247 0 min 0,0 UV-I 5,6 C 8,3 C 7,2 km/h (2 Bft)
08.10.2012 01:30 9,1 C 17,3 C 9,2 C 8,9 C 8,6 C 0,0 C 78 % 83 % 0 % 1022,5 hPa 0,0 l/m 5,0 km/h (1 Bft) W-SW 247 0 min 0,0 UV-I 5,5 C 8,2 C 6,1 km/h (2 Bft)
08.10.2012 01:35 9,1 C 17,3 C 9,1 C 9,0 C 8,7 C 0,0 C 78 % 83 % 0 % 1022,5 hPa 0,0 l/m 4,8 km/h (1 Bft) W-SW 247 0 min 0,0 UV-I 5,5 C 8,3 C 9,3 km/h (2 Bft)
08.10.2012 01:40 9,1 C 17,3 C 9,1 C 9,0 C 8,7 C 0,0 C 78 % 83 % 0 % 1022,8 hPa 0,0 l/m 4,8 km/h (1 Bft) W 270 0 min 0,0 UV-I 5,5 C 8,3 C 7,9 km/h (2 Bft)
08.10.2012 01:45 9,1 C 17,4 C 9,1 C 8,9 C 8,6 C 0,0 C 78 % 83 % 0 % 1022,8 hPa 0,0 l/m 4,8 km/h (1 Bft) S-SW 202 0 min 0,0 UV-I 5,5 C 8,2 C 3,7 km/h (1 Bft)
08.10.2012 01:50 9,1 C 17,4 C 9,1 C 9,0 C 8,7 C 0,0 C 78 % 83 % 0 % 1022,8 hPa 0,0 l/m 4,5 km/h (1 Bft) W-SW 247 0 min 0,0 UV-I 5,5 C 8,7 C 6,8 km/h (2 Bft)
08.10.2012 01:55 9,1 C 17,4 C 9,1 C 8,9 C 8,6 C 0,0 C 78 % 84 % 0 % 1022,8 hPa 0,0 l/m 4,7 km/h (1 Bft) W 270 0 min 0,0 UV-I 5,5 C 8,3 C 7,7 km/h (2 Bft)
08.10.2012 02:00 9,1 C 17,4 C 9,1 C 8,9 C 8,4 C 0,0 C 78 % 84 % 0 % 1022,8 hPa 0,0 l/m 5,3 km/h (1 Bft) W-SW 247 0 min 0,0 UV-I 5,5 C 7,8 C 9,5 km/h (2 Bft)
08.10.2012 02:05 9,0 C 17,4 C 9,1 C 8,8 C 8,3 C 0,0 C 79 % 84 % 0 % 1022,8 hPa 0,0 l/m 5,3 km/h (1 Bft) S 180 0 min 0,0 UV-I 5,6 C 7,7 C 7,9 km/h (2 Bft)
08.10.2012 02:10 8,9 C 17,4 C 9,1 C 8,6 C 8,0 C 0,0 C 79 % 84 % 0 % 1022,8 hPa 0,0 l/m 5,5 km/h (1 Bft) SW 225 0 min 0,0 UV-I 5,5 C 7,3 C 6,0 km/h (2 Bft)
08.10.2012 02:15 8,8 C 17,4 C 8,9 C 8,5 C 7,9 C 0,0 C 79 % 84 % 0 % 1022,8 hPa 0,0 l/m 5,8 km/h (2 Bft) SW 225 0 min 0,0 UV-I 5,4 C 7,1 C 8,2 km/h (2 Bft)
08.10.2012 02:20 8,8 C 17,4 C 8,9 C 8,5 C 7,9 C 0,0 C 79 % 84 % 0 % 1023,1 hPa 0,0 l/m 5,5 km/h (1 Bft) W 270 0 min 0,0 UV-I 5,4 C 7,2 C 6,8 km/h (2 Bft)
08.10.2012 02:25 8,7 C 17,4 C 8,9 C 8,5 C 8,0 C 0,0 C 79 % 84 % 0 % 1023,1 hPa 0,0 l/m 4,7 km/h (1 Bft) W-SW 247 0 min 0,0 UV-I 5,3 C 7,6 C 8,0 km/h (2 Bft)
08.10.2012 02:30 8,6 C 17,4 C 8,8 C 8,4 C 8,1 C 0,0 C 79 % 84 % 0 % 1023,1 hPa 0,0 l/m 4,5 km/h (1 Bft) W-SW 247 0 min 0,0 UV-I 5,2 C 8,1 C 5,0 km/h (1 Bft)
08.10.2012 02:35 8,7 C 17,4 C 8,8 C 8,5 C 8,0 C 0,0 C 80 % 84 % 0 % 1023,1 hPa 0,0 l/m 4,7 km/h (1 Bft) S-SW 202 0 min 0,0 UV-I 5,4 C 7,6 C 5,8 km/h (2 Bft)
08.10.2012 02:40 8,5 C 17,4 C 8,8 C 8,4 C 8,3 C 0,0 C 80 % 84 % 0 % 1022,8 hPa 0,0 l/m 4,0 km/h (1 Bft) W-SW 247 0 min 0,0 UV-I 5,3 C 8,3 C 6,6 km/h (2 Bft)
08.10.2012 02:45 8,4 C 17,4 C 8,8 C 8,4 C 8,4 C 0,0 C 80 % 84 % 0 % 1022,8 hPa 0,0 l/m 3,7 km/h (1 Bft) SW 225 0 min 0,0 UV-I 5,2 C 8,4 C 5,8 km/h (2 Bft)
08.10.2012 02:50 8,4 C 17,4 C 8,8 C 8,4 C 8,3 C 0,0 C 80 % 84 % 0 % 1022,8 hPa 0,0 l/m 3,9 km/h (1 Bft) W-SW 247 0 min 0,0 UV-I 5,2 C 8,3 C 5,0 km/h (1 Bft)
08.10.2012 02:55 8,4 C 17,3 C 8,7 C 8,3 C 8,0 C 0,0 C 80 % 84 % 0 % 1022,8 hPa 0,0 l/m 4,8 km/h (1 Bft) W-SW 247 0 min 0,0 UV-I 5,2 C 7,6 C 12,4 km/h (3 Bft)
08.10.2012 03:00 8,4 C 17,4 C 8,7 C 8,2 C 7,9 C 0,0 C 80 % 84 % 0 % 1023,0 hPa 0,0 l/m 5,0 km/h (1 Bft) W 270 0 min 0,0 UV-I 5,2 C 7,4 C 6,3 km/h (2 Bft)
08.10.2012 03:05 8,4 C 17,3 C 8,7 C 8,2 C 7,8 C 0,0 C 80 % 84 % 0 % 1023,0 hPa 0,0 l/m 4,8 km/h (1 Bft) W-SW 247 0 min 0,0 UV-I 5,2 C 7,3 C 7,7 km/h (2 Bft)
08.10.2012 03:10 8,3 C 17,3 C 8,6 C 8,1 C 7,6 C 0,0 C 80 % 84 % 0 % 1023,0 hPa 0,0 l/m 5,5 km/h (1 Bft) SW 225 0 min 0,0 UV-I 5,1 C 6,9 C 9,2 km/h (2 Bft)
08.10.2012 03:15 8,3 C 17,3 C 8,6 C 8,0 C 7,3 C 0,0 C 80 % 84 % 0 % 1023,0 hPa 0,0 l/m 5,8 km/h (2 Bft) W-SW 247 0 min 0,0 UV-I 5,1 C 6,4 C 8,2 km/h (2 Bft)
08.10.2012 03:20 8,3 C 17,3 C 8,5 C 8,0 C 7,4 C 0,0 C 80 % 84 % 0 % 1022,8 hPa 0,0 l/m 5,1 km/h (1 Bft) SW 225 0 min 0,0 UV-I 5,1 C 6,8 C 5,1 km/h (1 Bft)
08.10.2012 03:25 8,3 C 17,3 C 8,5 C 8,1 C 7,6 C 0,0 C 80 % 84 % 0 % 1022,8 hPa 0,0 l/m 4,8 km/h (1 Bft) S-SW 202 0 min 0,0 UV-I 5,1 C 7,1 C 5,3 km/h (1 Bft)
08.10.2012 03:30 8,3 C 17,3 C 8,4 C 8,0 C 7,3 C 0,0 C 80 % 84 % 0 % 1022,8 hPa 0,0 l/m 4,8 km/h (1 Bft) SW 225 0 min 0,0 UV-I 5,1 C 6,8 C 3,9 km/h (1 Bft)
08.10.2012 03:35 8,1 C 17,3 C 8,5 C 7,8 C 7,3 C 0,0 C 80 % 84 % 0 % 1022,8 hPa 0,0 l/m 4,8 km/h (1 Bft) W-SW 247 0 min 0,0 UV-I 4,9 C 6,8 C 6,8 km/h (2 Bft)
08.10.2012 03:40 8,1 C 17,3 C 8,5 C 7,8 C 7,3 C 0,0 C 80 % 84 % 0 % 1022,8 hPa 0,0 l/m 4,8 km/h (1 Bft) W-NW 292 0 min 0,0 UV-I 4,9 C 6,8 C 6,3 km/h (2 Bft)
08.10.2012 03:45 8,1 C 17,3 C 8,4 C 7,9 C 7,6 C 0,0 C 80 % 84 % 0 % 1022,8 hPa 0,0 l/m 4,8 km/h (1 Bft) W 270 0 min 0,0 UV-I 4,9 C 7,1 C 0,0 km/h (0 Bft)
08.10.2012 03:50 8,1 C 17,3 C 8,4 C 7,9 C 7,6 C 0,0 C 80 % 84 % 0 % 1022,8 hPa 0,0 l/m 4,3 km/h (1 Bft) W-SW 247 0 min 0,0 UV-I 4,9 C 7,6 C 3,9 km/h (1 Bft)
08.10.2012 03:55 8,1 C 17,3 C 8,4 C 8,1 C 8,0 C 0,0 C 80 % 84 % 0 % 1022,8 hPa 0,0 l/m 3,2 km/h (1 Bft) W 270 0 min 0,0 UV-I 4,9 C 8,0 C 5,0 km/h (1 Bft)
08.10.2012 04:00 8,0 C 17,3 C 8,4 C 8,0 C 8,0 C 0,0 C 80 % 84 % 0 % 1022,6 hPa 0,0 l/m 3,2 km/h (1 Bft) W-SW 247 0 min 0,0 UV-I 4,8 C 8,0 C 4,7 km/h (1 Bft)
08.10.2012 04:05 8,1 C 17,3 C 8,5 C 8,0 C 7,9 C 0,0 C 80 % 84 % 0 % 1022,6 hPa 0,0 l/m 3,2 km/h (1 Bft) NW 315 0 min 0,0 UV-I 4,9 C 7,9 C 1,6 km/h (1 Bft)
08.10.2012 04:10 7,9 C 17,3 C 8,4 C 7,9 C 7,8 C 0,0 C 80 % 85 % 0 % 1022,6 hPa 0,0 l/m 3,2 km/h (1 Bft) W-SW 247 0 min 0,0 UV-I 4,7 C 7,8 C 6,1 km/h (2 Bft)
08.10.2012 04:15 7,8 C 17,3 C 8,4 C 7,8 C 7,7 C 0,0 C 81 % 85 % 0 % 1022,6 hPa 0,0 l/m 3,1 km/h (1 Bft) W-SW 247 0 min 0,0 UV-I 4,7 C 7,7 C 6,1 km/h (2 Bft)
08.10.2012 04:20 7,9 C 17,3 C 8,4 C 7,8 C 7,7 C 0,0 C 81 % 85 % 0 % 1023,1 hPa 0,0 l/m 3,5 km/h (1 Bft) SW 225 0 min 0,0 UV-I 4,8 C 7,7 C 3,5 km/h (1 Bft)
08.10.2012 04:25 7,7 C 17,3 C 8,3 C 7,7 C 7,6 C 0,0 C 81 % 85 % 0 % 1023,1 hPa 0,0 l/m 3,9 km/h (1 Bft) N-NO 22 0 min 0,0 UV-I 4,7 C 7,6 C 4,7 km/h (1 Bft)
08.10.2012 04:30 7,7 C 17,3 C 8,3 C 7,7 C 7,6 C 0,0 C 81 % 85 % 0 % 1023,1 hPa 0,0 l/m 3,4 km/h (1 Bft) S 180 0 min 0,0 UV-I 4,7 C 7,6 C 5,8 km/h (2 Bft)
08.10.2012 04:35 7,6 C 17,3 C 8,3 C 7,6 C 7,5 C 0,0 C 81 % 85 % 0 % 1023,1 hPa 0,0 l/m 3,9 km/h (1 Bft) W 270 0 min 0,0 UV-I 4,6 C 7,5 C 5,8 km/h (2 Bft)
08.10.2012 04:40 7,6 C 17,3 C 8,2 C 7,5 C 7,2 C 0,0 C 81 % 85 % 0 % 1022,6 hPa 0,0 l/m 4,5 km/h (1 Bft) W 270 0 min 0,0 UV-I 4,6 C 7,2 C 6,6 km/h (2 Bft)
08.10.2012 04:45 7,5 C 17,3 C 8,1 C 7,4 C 7,1 C 0,0 C 81 % 85 % 0 % 1022,6 hPa 0,0 l/m 5,0 km/h (1 Bft) SW 225 0 min 0,0 UV-I 4,5 C 6,5 C 3,7 km/h (1 Bft)
08.10.2012 04:50 7,5 C 17,3 C 8,1 C 7,4 C 7,2 C 0,0 C 81 % 85 % 0 % 1022,6 hPa 0,0 l/m 4,5 km/h (1 Bft) W-SW 247 0 min 0,0 UV-I 4,5 C 7,2 C 5,1 km/h (1 Bft)
08.10.2012 04:55 7,5 C 17,2 C 8,1 C 7,5 C 7,4 C 0,0 C 81 % 85 % 0 % 1022,6 hPa 0,0 l/m 4,0 km/h (1 Bft) S 180 0 min 0,0 UV-I 4,5 C 7,4 C 2,9 km/h (1 Bft)
08.10.2012 05:00 7,4 C 17,2 C 8,1 C 7,4 C 7,3 C 0,0 C 81 % 85 % 0 % 1022,2 hPa 0,0 l/m 4,0 km/h (1 Bft) W-SW 247 0 min 0,0 UV-I 4,4 C 7,3 C 4,3 km/h (1 Bft)
08.10.2012 05:05 7,4 C 17,2 C 8,0 C 7,5 C 7,5 C 0,1 C 81 % 85 % 0 % 1022,2 hPa 0,0 l/m 3,9 km/h (1 Bft) SW 225 0 min 0,0 UV-I 4,4 C 7,5 C 3,9 km/h (1 Bft)
08.10.2012 05:10 7,5 C 17,2 C 8,0 C 7,4 C 7,2 C 0,0 C 81 % 85 % 0 % 1022,2 hPa 0,0 l/m 4,3 km/h (1 Bft) W 270 0 min 0,0 UV-I 4,5 C 7,2 C 5,8 km/h (2 Bft)
08.10.2012 05:15 7,3 C 17,2 C 8,0 C 7,3 C 7,2 C 0,0 C 81 % 85 % 0 % 1022,2 hPa 0,0 l/m 4,3 km/h (1 Bft) SW 225 0 min 0,0 UV-I 4,3 C 7,2 C 5,5 km/h (1 Bft)
08.10.2012 05:20 7,3 C 17,2 C 8,0 C 7,3 C 7,2 C 0,0 C 81 % 85 % 0 % 1022,6 hPa 0,0 l/m 4,3 km/h (1 Bft) S 180 0 min 0,0 UV-I 4,3 C 7,2 C 9,3 km/h (2 Bft)
08.10.2012 05:25 7,2 C 17,2 C 8,0 C 7,1 C 6,9 C 0,0 C 81 % 85 % 0 % 1022,6 hPa 0,0 l/m 5,0 km/h (1 Bft) W 270 0 min 0,0 UV-I 4,2 C 6,2 C 5,0 km/h (1 Bft)
08.10.2012 05:30 7,3 C 17,2 C 7,9 C 7,2 C 6,9 C 0,0 C 81 % 85 % 0 % 1022,6 hPa 0,0 l/m 4,8 km/h (1 Bft) W-SW 247 0 min 0,0 UV-I 4,3 C 6,3 C 3,7 km/h (1 Bft)
08.10.2012 05:35 7,1 C 17,2 C 7,8 C 7,0 C 6,9 C 0,0 C 81 % 85 % 0 % 1022,6 hPa 0,0 l/m 4,2 km/h (1 Bft) SW 225 0 min 0,0 UV-I 4,1 C 6,9 C 4,2 km/h (1 Bft)
08.10.2012 05:40 7,1 C 17,2 C 7,9 C 7,0 C 6,9 C 0,0 C 82 % 85 % 0 % 1023,4 hPa 0,0 l/m 4,2 km/h (1 Bft) SW 225 0 min 0,0 UV-I 4,2 C 6,9 C 5,8 km/h (2 Bft)
08.10.2012 05:45 7,1 C 17,2 C 7,8 C 7,0 C 6,8 C 0,0 C 82 % 85 % 0 % 1023,4 hPa 0,0 l/m 4,5 km/h (1 Bft) W-SW 247 0 min 0,0 UV-I 4,2 C 6,8 C 4,5 km/h (1 Bft)
08.10.2012 05:50 6,9 C 17,2 C 7,8 C 6,8 C 6,7 C 0,0 C 82 % 85 % 0 % 1023,4 hPa 0,0 l/m 4,8 km/h (1 Bft) W-SW 247 0 min 0,0 UV-I 4,0 C 6,1 C 6,1 km/h (2 Bft)
08.10.2012 05:55 6,9 C 17,2 C 7,7 C 6,9 C 6,8 C 0,0 C 82 % 85 % 0 % 1023,4 hPa 0,0 l/m 4,3 km/h (1 Bft) W-SW 247 0 min 0,0 UV-I 4,0 C 6,8 C 2,4 km/h (1 Bft)
08.10.2012 06:00 6,9 C 17,2 C 7,6 C 7,0 C 7,0 C 0,1 C 82 % 85 % 0 % 1022,8 hPa 0,0 l/m 3,7 km/h (1 Bft) W-SW 247 0 min 0,0 UV-I 4,0 C 7,0 C 4,2 km/h (1 Bft)
08.10.2012 06:05 6,8 C 17,2 C 7,6 C 7,1 C 7,1 C 0,3 C 82 % 86 % 0 % 1022,8 hPa 0,0 l/m 2,9 km/h (1 Bft) W-SW 247 0 min 0,0 UV-I 3,9 C 7,1 C 4,7 km/h (1 Bft)
08.10.2012 06:10 6,8 C 17,1 C 7,6 C 6,9 C 6,9 C 0,1 C 82 % 85 % 0 % 1022,8 hPa 0,0 l/m 3,9 km/h (1 Bft) S 180 0 min 0,0 UV-I 3,9 C 6,9 C 5,8 km/h (2 Bft)
08.10.2012 06:15 6,8 C 17,1 C 7,6 C 6,9 C 6,9 C 0,1 C 82 % 86 % 0 % 1022,8 hPa 0,0 l/m 3,9 km/h (1 Bft) NO 45 0 min 0,0 UV-I 3,9 C 6,9 C 6,8 km/h (2 Bft)
08.10.2012 06:20 6,8 C 17,1 C 7,6 C 7,1 C 7,1 C 0,3 C 82 % 85 % 0 % 1022,8 hPa 0,0 l/m 3,7 km/h (1 Bft) W 270 0 min 0,0 UV-I 3,9 C 7,1 C 4,7 km/h (1 Bft)
08.10.2012 06:25 6,8 C 17,1 C 7,6 C 6,8 C 6,7 C 0,0 C 82 % 85 % 0 % 1022,8 hPa 0,0 l/m 4,7 km/h (1 Bft) W-SW 247 0 min 0,0 UV-I 3,9 C 6,1 C 4,2 km/h (1 Bft)
08.10.2012 06:30 6,9 C 17,1 C 7,6 C 6,8 C 6,7 C 0,0 C 82 % 85 % 0 % 1022,8 hPa 0,0 l/m 4,5 km/h (1 Bft) S 180 0 min 0,0 UV-I 4,0 C 6,7 C 6,1 km/h (2 Bft)
08.10.2012 06:35 6,8 C 17,1 C 7,6 C 7,0 C 7,0 C 0,2 C 82 % 86 % 0 % 1022,8 hPa 0,0 l/m 3,7 km/h (1 Bft) W-SW 247 0 min 0,0 UV-I 3,9 C 7,0 C 4,5 km/h (1 Bft)
08.10.2012 06:46 6,8 C 17,1 C 7,6 C 7,0 C 7,0 C 0,2 C 82 % 86 % 0 % 1022,6 hPa 0,0 l/m 3,4 km/h (1 Bft) N 0 0 min 0,0 UV-I 3,9 C 7,0 C 3,9 km/h (1 Bft)
08.10.2012 06:55 6,7 C 17,1 C 7,5 C 7,0 C 7,0 C 0,3 C 82 % 86 % 0 % 1022,6 hPa 0,0 l/m 2,7 km/h (1 Bft) S 180 0 min 0,0 UV-I 3,8 C 7,0 C 5,3 km/h (1 Bft)
08.10.2012 07:00 6,6 C 17,1 C 7,5 C 6,9 C 6,9 C 0,3 C 82 % 86 % 0 % 1022,5 hPa 0,0 l/m 2,9 km/h (1 Bft) W-SW 247 0 min 0,0 UV-I 3,8 C 6,9 C 5,0 km/h (1 Bft)
08.10.2012 07:05 6,7 C 17,1 C 7,5 C 6,6 C 6,5 C 0,0 C 82 % 86 % 0 % 1022,5 hPa 0,0 l/m 4,2 km/h (1 Bft) SW 225 0 min 0,0 UV-I 3,8 C 6,5 C 6,8 km/h (2 Bft)
08.10.2012 07:10 6,7 C 17,1 C 7,4 C 6,6 C 6,3 C 0,0 C 82 % 86 % 0 % 1022,5 hPa 0,0 l/m 4,7 km/h (1 Bft) W-SW 247 0 min 0,0 UV-I 3,8 C 5,7 C 3,4 km/h (1 Bft)
08.10.2012 07:15 6,5 C 17,1 C 7,4 C 6,5 C 6,4 C 0,0 C 82 % 86 % 0 % 1022,5 hPa 0,0 l/m 4,3 km/h (1 Bft) SW 225 0 min 0,0 UV-I 3,7 C 6,4 C 5,5 km/h (1 Bft)
08.10.2012 07:20 6,5 C 17,1 C 7,5 C 6,5 C 6,4 C 0,0 C 82 % 86 % 0 % 1022,3 hPa 0,0 l/m 4,3 km/h (1 Bft) S-SW 202 0 min 0,0 UV-I 3,7 C 6,4 C 5,1 km/h (1 Bft)
08.10.2012 07:25 6,5 C 17,1 C 7,5 C 6,4 C 6,3 C 0,0 C 82 % 86 % 0 % 1022,3 hPa 0,0 l/m 4,8 km/h (1 Bft) W-SW 247 0 min 0,0 UV-I 3,7 C 5,6 C 6,0 km/h (2 Bft)
08.10.2012 07:30 6,4 C 17,0 C 7,4 C 6,3 C 6,2 C 0,0 C 82 % 86 % 0 % 1022,3 hPa 0,0 l/m 5,1 km/h (1 Bft) W 270 0 min 0,0 UV-I 3,6 C 5,4 C 8,0 km/h (2 Bft)
08.10.2012 07:35 6,4 C 17,0 C 7,4 C 6,3 C 6,2 C 0,0 C 82 % 86 % 0 % 1022,3 hPa 0,0 l/m 5,0 km/h (1 Bft) S 180 0 min 0,0 UV-I 3,6 C 5,4 C 8,5 km/h (2 Bft)
08.10.2012 07:40 6,4 C 17,0 C 7,5 C 6,4 C 6,3 C 0,0 C 82 % 86 % 0 % 1022,6 hPa 0,0 l/m 4,8 km/h (1 Bft) S-SW 202 0 min 0,0 UV-I 3,6 C 5,6 C 5,8 km/h (2 Bft)
08.10.2012 07:45 6,5 C 17,0 C 7,4 C 6,5 C 6,5 C 0,0 C 82 % 86 % 0 % 1022,6 hPa 0,0 l/m 4,2 km/h (1 Bft) W-SW 247 0 min 0,0 UV-I 3,7 C 6,5 C 2,1 km/h (1 Bft)
08.10.2012 07:50 6,4 C 17,0 C 7,3 C 6,8 C 6,8 C 0,4 C 82 % 86 % 11 % 1022,6 hPa 0,0 l/m 3,7 km/h (1 Bft) W 270 0 min 0,0 UV-I 3,6 C 6,8 C 4,2 km/h (1 Bft)
08.10.2012 07:55 6,5 C 17,0 C 7,4 C 7,0 C 7,0 C 0,5 C 83 % 86 % 13 % 1022,6 hPa 0,0 l/m 3,4 km/h (1 Bft) SW 225 0 min 0,0 UV-I 3,8 C 7,0 C 7,7 km/h (2 Bft)
08.10.2012 08:00 6,5 C 17,0 C 7,5 C 7,0 C 7,0 C 0,5 C 82 % 86 % 13 % 1022,9 hPa 0,0 l/m 3,4 km/h (1 Bft) W 270 0 min 0,0 UV-I 3,7 C 7,0 C 3,4 km/h (1 Bft)
08.10.2012 08:05 6,4 C 17,0 C 7,5 C 7,1 C 7,1 C 0,7 C 83 % 86 % 18 % 1022,9 hPa 0,0 l/m 3,5 km/h (1 Bft) W-SW 247 0 min 0,0 UV-I 3,7 C 7,1 C 1,8 km/h (1 Bft)
08.10.2012 08:10 6,5 C 17,0 C 7,5 C 7,1 C 7,1 C 0,6 C 83 % 86 % 16 % 1022,9 hPa 0,0 l/m 3,1 km/h (1 Bft) W 270 0 min 0,0 UV-I 3,8 C 7,1 C 4,0 km/h (1 Bft)
08.10.2012 08:15 6,5 C 17,0 C 7,4 C 7,2 C 7,2 C 0,7 C 83 % 86 % 18 % 1022,9 hPa 0,0 l/m 2,6 km/h (1 Bft) W-SW 247 0 min 0,0 UV-I 3,8 C 7,2 C 2,1 km/h (1 Bft)
08.10.2012 08:20 6,5 C 17,0 C 7,5 C 7,2 C 7,2 C 0,7 C 83 % 86 % 18 % 1022,9 hPa 0,0 l/m 2,4 km/h (1 Bft) W-SW 247 0 min 0,0 UV-I 3,8 C 7,2 C 2,7 km/h (1 Bft)
08.10.2012 08:25 6,4 C 17,0 C 7,5 C 7,2 C 7,2 C 0,8 C 83 % 86 % 21 % 1022,9 hPa 0,0 l/m 2,1 km/h (1 Bft) SW 225 0 min 0,0 UV-I 3,7 C 7,2 C 4,2 km/h (1 Bft)
08.10.2012 08:30 6,4 C 17,0 C 7,6 C 7,3 C 7,3 C 0,9 C 83 % 86 % 24 % 1022,9 hPa 0,0 l/m 2,7 km/h (1 Bft) W 270 0 min 0,0 UV-I 3,7 C 7,3 C 5,0 km/h (1 Bft)
08.10.2012 08:35 6,5 C 17,0 C 7,6 C 7,5 C 7,5 C 1,0 C 83 % 86 % 26 % 1022,9 hPa 0,0 l/m 2,9 km/h (1 Bft) SO 135 0 min 0,0 UV-I 3,8 C 7,5 C 5,5 km/h (1 Bft)
08.10.2012 08:40 6,5 C 17,0 C 7,7 C 7,5 C 7,5 C 1,0 C 83 % 86 % 26 % 1023,0 hPa 0,0 l/m 2,3 km/h (1 Bft) S 180 0 min 0,0 UV-I 3,8 C 7,5 C 5,5 km/h (1 Bft)
08.10.2012 08:45 6,7 C 17,0 C 7,6 C 7,7 C 7,7 C 1,0 C 83 % 86 % 26 % 1023,0 hPa 0,0 l/m 1,4 km/h (1 Bft) S-SO 157 0 min 0,0 UV-I 4,0 C 7,7 C 0,0 km/h (0 Bft)
08.10.2012 08:50 6,7 C 17,0 C 7,9 C 7,9 C 7,9 C 1,2 C 83 % 86 % 32 % 1023,0 hPa 0,0 l/m 1,6 km/h (1 Bft) W-SW 247 0 min 0,0 UV-I 4,0 C 7,9 C 4,8 km/h (1 Bft)
08.10.2012 08:55 6,9 C 17,0 C 7,9 C 8,0 C 8,0 C 1,1 C 83 % 86 % 29 % 1023,0 hPa 0,0 l/m 2,4 km/h (1 Bft) W-NW 292 0 min 0,0 UV-I 4,2 C 8,0 C 0,0 km/h (0 Bft)
08.10.2012 09:00 6,8 C 17,0 C 7,9 C 8,1 C 8,1 C 1,3 C 83 % 86 % 34 % 1023,2 hPa 0,0 l/m 3,1 km/h (1 Bft) SW 225 0 min 0,0 UV-I 4,1 C 8,1 C 5,0 km/h (1 Bft)
08.10.2012 09:05 6,9 C 16,9 C 7,8 C 8,2 C 8,2 C 1,3 C 82 % 85 % 34 % 1023,2 hPa 0,0 l/m 2,7 km/h (1 Bft) S 180 0 min 0,0 UV-I 4,0 C 8,2 C 3,2 km/h (1 Bft)
08.10.2012 09:10 7,1 C 16,9 C 7,9 C 8,3 C 8,3 C 1,2 C 83 % 86 % 32 % 1023,2 hPa 0,0 l/m 3,5 km/h (1 Bft) SW 225 0 min 0,0 UV-I 4,4 C 8,3 C 8,2 km/h (2 Bft)
08.10.2012 09:15 7,2 C 16,9 C 8,1 C 8,3 C 8,3 C 1,1 C 82 % 85 % 29 % 1023,2 hPa 0,0 l/m 4,0 km/h (1 Bft) SW 225 0 min 0,0 UV-I 4,3 C 8,3 C 6,9 km/h (2 Bft)
08.10.2012 09:20 7,2 C 16,9 C 8,1 C 8,2 C 8,2 C 1,0 C 82 % 85 % 26 % 1023,3 hPa 0,0 l/m 4,5 km/h (1 Bft) SW 225 0 min 0,0 UV-I 4,3 C 8,2 C 5,3 km/h (1 Bft)
08.10.2012 09:25 7,3 C 16,9 C 8,2 C 8,3 C 8,3 C 1,0 C 82 % 85 % 26 % 1023,3 hPa 0,0 l/m 4,7 km/h (1 Bft) SW 225 0 min 0,0 UV-I 4,4 C 7,9 C 5,6 km/h (1 Bft)
08.10.2012 09:30 7,3 C 16,9 C 8,3 C 8,4 C 8,4 C 1,1 C 82 % 85 % 29 % 1023,3 hPa 0,0 l/m 4,2 km/h (1 Bft) S 180 0 min 0,0 UV-I 4,4 C 8,4 C 4,5 km/h (1 Bft)
08.10.2012 09:35 7,5 C 16,9 C 8,4 C 8,6 C 8,6 C 1,1 C 82 % 85 % 29 % 1023,3 hPa 0,0 l/m 4,2 km/h (1 Bft) W-SW 247 0 min 0,0 UV-I 4,6 C 8,6 C 6,3 km/h (2 Bft)
08.10.2012 09:40 7,5 C 16,9 C 8,4 C 8,7 C 8,7 C 1,2 C 82 % 85 % 32 % 1023,3 hPa 0,0 l/m 4,0 km/h (1 Bft) S 180 0 min 0,0 UV-I 4,6 C 8,7 C 3,4 km/h (1 Bft)
08.10.2012 09:45 7,6 C 16,9 C 8,4 C 8,6 C 8,6 C 1,0 C 82 % 85 % 26 % 1023,3 hPa 0,0 l/m 4,3 km/h (1 Bft) W-NW 292 0 min 0,1 UV-I 4,7 C 8,6 C 4,2 km/h (1 Bft)
08.10.2012 09:50 7,6 C 16,9 C 8,4 C 8,7 C 8,7 C 1,1 C 82 % 85 % 29 % 1023,3 hPa 0,0 l/m 4,0 km/h (1 Bft) S 180 0 min 0,1 UV-I 4,7 C 8,7 C 4,8 km/h (1 Bft)
08.10.2012 09:55 7,7 C 16,9 C 8,5 C 8,4 C 8,4 C 0,7 C 82 % 85 % 18 % 1023,3 hPa 0,0 l/m 4,7 km/h (1 Bft) SW 225 0 min 0,1 UV-I 4,8 C 8,0 C 8,5 km/h (2 Bft)
08.10.2012 10:00 7,7 C 16,9 C 8,5 C 8,4 C 8,4 C 0,7 C 82 % 85 % 18 % 1023,4 hPa 0,0 l/m 4,7 km/h (1 Bft) W-SW 247 0 min 0,1 UV-I 4,8 C 8,0 C 2,6 km/h (1 Bft)
08.10.2012 10:05 7,9 C 16,9 C 8,5 C 8,8 C 8,8 C 0,9 C 82 % 85 % 24 % 1023,4 hPa 0,0 l/m 4,0 km/h (1 Bft) W-SW 247 0 min 0,1 UV-I 5,0 C 8,8 C 8,2 km/h (2 Bft)
08.10.2012 10:10 7,9 C 16,9 C 8,5 C 8,8 C 8,8 C 0,9 C 81 % 85 % 24 % 1023,4 hPa 0,0 l/m 4,0 km/h (1 Bft) W-SW 247 0 min 0,1 UV-I 4,8 C 8,8 C 4,5 km/h (1 Bft)
08.10.2012 10:15 7,8 C 16,9 C 8,6 C 8,7 C 8,7 C 0,9 C 81 % 85 % 24 % 1023,4 hPa 0,0 l/m 4,2 km/h (1 Bft) W-SW 247 0 min 0,1 UV-I 4,7 C 8,7 C 5,6 km/h (1 Bft)
08.10.2012 10:20 7,9 C 16,9 C 8,7 C 8,8 C 8,8 C 0,9 C 81 % 85 % 24 % 1023,6 hPa 0,0 l/m 4,0 km/h (1 Bft) W-SW 247 0 min 0,1 UV-I 4,8 C 8,8 C 5,0 km/h (1 Bft)
08.10.2012 10:25 8,0 C 16,9 C 8,7 C 9,2 C 9,2 C 1,2 C 81 % 85 % 32 % 1023,6 hPa 0,0 l/m 3,5 km/h (1 Bft) W-SW 247 0 min 0,2 UV-I 4,9 C 9,2 C 3,5 km/h (1 Bft)
08.10.2012 10:30 8,0 C 16,9 C 8,9 C 9,3 C 9,3 C 1,3 C 81 % 85 % 34 % 1023,6 hPa 0,0 l/m 3,4 km/h (1 Bft) W-SW 247 0 min 0,3 UV-I 4,9 C 9,3 C 5,1 km/h (1 Bft)
08.10.2012 10:35 8,1 C 16,9 C 8,8 C 9,5 C 9,5 C 1,4 C 81 % 84 % 37 % 1023,6 hPa 0,0 l/m 4,3 km/h (1 Bft) SW 225 0 min 0,3 UV-I 5,0 C 9,5 C 3,5 km/h (1 Bft)
08.10.2012 10:40 8,2 C 16,9 C 9,1 C 9,8 C 9,8 C 1,6 C 81 % 84 % 42 % 1023,3 hPa 0,0 l/m 3,9 km/h (1 Bft) N-NW 337 0 min 0,4 UV-I 5,1 C 9,8 C 3,7 km/h (1 Bft)
08.10.2012 10:45 8,5 C 16,9 C 9,2 C 10,1 C 10,1 C 1,6 C 81 % 85 % 42 % 1023,3 hPa 0,0 l/m 3,2 km/h (1 Bft) SW 225 0 min 0,4 UV-I 5,4 C 10,1 C 4,3 km/h (1 Bft)
08.10.2012 10:50 8,5 C 16,9 C 9,2 C 10,3 C 10,3 C 1,8 C 81 % 85 % 47 % 1023,3 hPa 0,0 l/m 3,4 km/h (1 Bft) W-SW 247 0 min 0,6 UV-I 5,4 C 10,3 C 5,1 km/h (1 Bft)
08.10.2012 10:55 8,8 C 16,9 C 9,5 C 10,6 C 10,6 C 1,8 C 81 % 84 % 47 % 1023,3 hPa 0,0 l/m 3,2 km/h (1 Bft) W-SW 247 0 min 0,6 UV-I 5,7 C 10,6 C 5,1 km/h (1 Bft)
08.10.2012 11:00 8,8 C 16,9 C 9,5 C 10,7 C 10,7 C 1,9 C 80 % 84 % 50 % 1023,4 hPa 0,0 l/m 3,2 km/h (1 Bft) W-SW 247 0 min 0,6 UV-I 5,5 C 10,7 C 5,8 km/h (2 Bft)
08.10.2012 11:05 9,1 C 16,8 C 9,7 C 11,0 C 11,0 C 1,9 C 80 % 84 % 50 % 1023,4 hPa 0,0 l/m 3,9 km/h (1 Bft) SW 225 0 min 0,7 UV-I 5,8 C 11,0 C 5,1 km/h (1 Bft)
08.10.2012 11:10 9,2 C 16,7 C 9,9 C 11,0 C 11,0 C 1,8 C 79 % 84 % 47 % 1023,4 hPa 0,0 l/m 5,0 km/h (1 Bft) SW 225 0 min 0,7 UV-I 5,8 C 11,0 C 8,4 km/h (2 Bft)
08.10.2012 11:15 9,3 C 16,7 C 9,8 C 10,8 C 10,8 C 1,5 C 79 % 83 % 39 % 1023,4 hPa 0,0 l/m 5,8 km/h (2 Bft) SW 225 0 min 0,8 UV-I 5,8 C 10,8 C 7,4 km/h (2 Bft)
08.10.2012 11:20 9,3 C 16,7 C 9,9 C 10,9 C 10,9 C 1,6 C 79 % 83 % 42 % 1023,2 hPa 0,0 l/m 5,3 km/h (1 Bft) SW 225 0 min 0,8 UV-I 5,8 C 10,9 C 4,0 km/h (1 Bft)
08.10.2012 11:25 9,5 C 16,7 C 10,0 C 11,1 C 11,1 C 1,6 C 78 % 82 % 42 % 1023,2 hPa 0,0 l/m 5,3 km/h (1 Bft) W 270 0 min 0,9 UV-I 5,9 C 11,1 C 11,9 km/h (2 Bft)
08.10.2012 11:30 9,5 C 16,7 C 10,1 C 10,8 C 10,8 C 1,3 C 78 % 82 % 34 % 1023,2 hPa 0,0 l/m 5,8 km/h (2 Bft) S-SW 202 0 min 1,0 UV-I 5,9 C 10,8 C 9,3 km/h (2 Bft)
08.10.2012 11:35 9,6 C 16,7 C 10,1 C 10,6 C 10,6 C 1,0 C 78 % 82 % 26 % 1023,2 hPa 0,0 l/m 6,4 km/h (2 Bft) SW 225 0 min 1,0 UV-I 6,0 C 10,6 C 9,7 km/h (2 Bft)
08.10.2012 11:40 9,7 C 16,7 C 10,2 C 10,8 C 10,8 C 1,1 C 78 % 82 % 29 % 1022,9 hPa 0,0 l/m 6,1 km/h (2 Bft) SW 225 0 min 1,0 UV-I 6,1 C 10,8 C 6,8 km/h (2 Bft)
08.10.2012 11:45 10,0 C 16,7 C 10,4 C 10,9 C 10,9 C 0,9 C 76 % 81 % 24 % 1022,9 hPa 0,0 l/m 6,0 km/h (2 Bft) W-SW 247 0 min 1,1 UV-I 6,0 C 10,9 C 5,0 km/h (1 Bft)
08.10.2012 11:50 10,1 C 16,7 C 10,4 C 10,9 C 10,9 C 0,8 C 75 % 81 % 21 % 1022,9 hPa 0,0 l/m 6,0 km/h (2 Bft) SW 225 0 min 1,1 UV-I 5,9 C 10,9 C 7,9 km/h (2 Bft)
08.10.2012 11:55 10,3 C 16,7 C 10,4 C 11,0 C 11,0 C 0,7 C 75 % 81 % 18 % 1022,9 hPa 0,0 l/m 5,6 km/h (1 Bft) W-SW 247 0 min 1,0 UV-I 6,1 C 11,0 C 3,9 km/h (1 Bft)
08.10.2012 12:00 10,4 C 16,7 C 10,7 C 11,0 C 11,0 C 0,6 C 75 % 81 % 16 % 1022,8 hPa 0,0 l/m 5,6 km/h (1 Bft) SW 225 0 min 1,1 UV-I 6,2 C 11,0 C 10,3 km/h (2 Bft)
08.10.2012 12:05 10,5 C 16,7 C 10,7 C 11,4 C 11,4 C 0,9 C 75 % 80 % 24 % 1022,8 hPa 0,0 l/m 5,6 km/h (1 Bft) NW 315 0 min 1,1 UV-I 6,3 C 11,4 C 6,4 km/h (2 Bft)
08.10.2012 12:10 10,6 C 16,7 C 10,8 C 11,4 C 11,4 C 0,8 C 74 % 80 % 21 % 1022,8 hPa 0,0 l/m 6,3 km/h (2 Bft) SW 225 0 min 1,1 UV-I 6,2 C 11,4 C 5,1 km/h (1 Bft)
08.10.2012 12:15 10,7 C 16,7 C 10,9 C 11,9 C 11,9 C 1,2 C 74 % 79 % 32 % 1022,8 hPa 0,0 l/m 4,8 km/h (1 Bft) SW 225 0 min 1,1 UV-I 6,3 C 11,9 C 5,6 km/h (1 Bft)
08.10.2012 12:20 10,7 C 16,7 C 10,9 C 12,1 C 12,1 C 1,4 C 73 % 79 % 37 % 1022,5 hPa 0,0 l/m 4,3 km/h (1 Bft) W-SW 247 0 min 1,2 UV-I 6,1 C 12,1 C 8,7 km/h (2 Bft)
08.10.2012 12:25 10,8 C 16,7 C 10,9 C 12,6 C 12,6 C 1,8 C 73 % 79 % 47 % 1022,5 hPa 0,0 l/m 4,7 km/h (1 Bft) W-NW 292 0 min 1,2 UV-I 6,2 C 12,6 C 4,7 km/h (1 Bft)
08.10.2012 12:30 10,9 C 16,7 C 11,1 C 13,0 C 13,0 C 2,1 C 72 % 79 % 55 % 1022,5 hPa 0,0 l/m 4,5 km/h (1 Bft) SW 225 0 min 1,0 UV-I 6,1 C 13,0 C 4,8 km/h (1 Bft)
08.10.2012 12:35 11,0 C 16,7 C 10,9 C 12,6 C 12,6 C 1,6 C 71 % 78 % 42 % 1022,5 hPa 0,0 l/m 5,0 km/h (1 Bft) W 270 0 min 1,1 UV-I 5,9 C 12,6 C 7,9 km/h (2 Bft)
08.10.2012 12:46 11,1 C 16,7 C 10,8 C 12,8 C 12,8 C 1,7 C 70 % 77 % 45 % 1022,5 hPa 0,0 l/m 5,0 km/h (1 Bft) N 0 0 min 1,4 UV-I 5,8 C 12,8 C 6,0 km/h (2 Bft)
08.10.2012 12:55 10,9 C 16,7 C 11,0 C 13,5 C 13,5 C 2,6 C 69 % 77 % 68 % 1022,5 hPa 0,0 l/m 5,5 km/h (1 Bft) SW 225 0 min 1,6 UV-I 5,4 C 13,5 C 6,9 km/h (2 Bft)
08.10.2012 13:00 11,0 C 16,7 C 11,0 C 13,1 C 13,1 C 2,1 C 68 % 76 % 55 % 1022,2 hPa 0,0 l/m 5,8 km/h (2 Bft) S 180 0 min 1,3 UV-I 5,3 C 13,1 C 3,9 km/h (1 Bft)
08.10.2012 13:05 11,1 C 16,7 C 11,3 C 14,0 C 14,0 C 2,9 C 68 % 76 % 76 % 1022,2 hPa 0,0 l/m 4,7 km/h (1 Bft) S-SW 202 0 min 1,3 UV-I 5,4 C 14,0 C 5,0 km/h (1 Bft)
08.10.2012 13:10 11,3 C 16,7 C 11,6 C 15,3 C 15,3 C 4,0 C 68 % 76 % 100 % 1022,2 hPa 0,0 l/m 4,3 km/h (1 Bft) W 270 5 min 1,3 UV-I 5,6 C 15,3 C 7,7 km/h (2 Bft)
08.10.2012 13:15 11,6 C 16,7 C 11,9 C 16,7 C 16,7 C 5,1 C 68 % 76 % 100 % 1022,2 hPa 0,0 l/m 4,5 km/h (1 Bft) SW 225 5 min 1,5 UV-I 5,9 C 16,7 C 7,7 km/h (2 Bft)
08.10.2012 13:20 11,7 C 16,7 C 11,9 C 17,2 C 17,2 C 5,5 C 67 % 75 % 100 % 1022,0 hPa 0,0 l/m 4,5 km/h (1 Bft) S 180 5 min 1,4 UV-I 5,8 C 17,2 C 4,2 km/h (1 Bft)
08.10.2012 13:25 12,0 C 16,7 C 12,1 C 17,5 C 17,5 C 5,5 C 67 % 74 % 100 % 1022,0 hPa 0,0 l/m 4,3 km/h (1 Bft) W-SW 247 5 min 1,4 UV-I 6,1 C 17,5 C 3,5 km/h (1 Bft)
08.10.2012 13:30 12,2 C 16,7 C 12,3 C 18,2 C 18,2 C 6,0 C 67 % 75 % 100 % 1022,0 hPa 0,0 l/m 3,7 km/h (1 Bft) W-NW 292 5 min 1,5 UV-I 6,3 C 18,2 C 4,7 km/h (1 Bft)
08.10.2012 13:35 12,3 C 16,7 C 12,3 C 17,6 C 17,6 C 5,3 C 65 % 72 % 100 % 1022,0 hPa 0,0 l/m 4,2 km/h (1 Bft) S-SO 157 5 min 1,4 UV-I 5,9 C 17,6 C 0,0 km/h (0 Bft)
08.10.2012 13:40 12,2 C 16,7 C 12,1 C 16,5 C 16,5 C 4,3 C 64 % 72 % 100 % 1021,8 hPa 0,0 l/m 5,3 km/h (1 Bft) W-SW 247 5 min 0,7 UV-I 5,6 C 16,5 C 5,1 km/h (1 Bft)
08.10.2012 13:45 12,0 C 16,7 C 12,0 C 15,1 C 15,1 C 3,1 C 64 % 72 % 82 % 1021,8 hPa 0,0 l/m 4,5 km/h (1 Bft) NW 315 0 min 0,6 UV-I 5,4 C 15,1 C 4,5 km/h (1 Bft)
08.10.2012 13:50 12,1 C 16,8 C 12,3 C 15,9 C 15,9 C 3,8 C 65 % 72 % 100 % 1021,8 hPa 0,0 l/m 3,7 km/h (1 Bft) W-SW 247 5 min 0,6 UV-I 5,7 C 15,9 C 3,1 km/h (1 Bft)
08.10.2012 13:55 12,5 C 16,8 C 12,6 C 18,3 C 18,3 C 5,8 C 65 % 72 % 100 % 1021,8 hPa 0,0 l/m 2,7 km/h (1 Bft) SW 225 5 min 0,9 UV-I 6,1 C 18,3 C 6,9 km/h (2 Bft)
08.10.2012 14:00 12,4 C 16,8 C 12,9 C 18,9 C 18,9 C 6,5 C 63 % 72 % 100 % 1021,4 hPa 0,0 l/m 3,4 km/h (1 Bft) W-SW 247 5 min 1,2 UV-I 5,6 C 18,9 C 7,7 km/h (2 Bft)
08.10.2012 14:05 12,4 C 16,8 C 12,8 C 19,2 C 19,2 C 6,8 C 64 % 70 % 100 % 1021,4 hPa 0,0 l/m 4,2 km/h (1 Bft) W-SW 247 5 min 0,9 UV-I 5,8 C 19,2 C 8,4 km/h (2 Bft)
08.10.2012 14:10 12,5 C 16,8 C 12,9 C 19,3 C 19,3 C 6,8 C 64 % 71 % 100 % 1021,4 hPa 0,0 l/m 3,7 km/h (1 Bft) SW 225 5 min 0,7 UV-I 5,9 C 19,3 C 8,7 km/h (2 Bft)
08.10.2012 14:15 12,7 C 16,8 C 12,9 C 17,9 C 17,9 C 5,2 C 61 % 70 % 100 % 1021,4 hPa 0,0 l/m 3,5 km/h (1 Bft) W 270 5 min 0,7 UV-I 5,4 C 17,9 C 3,7 km/h (1 Bft)
08.10.2012 14:20 12,8 C 16,8 C 13,1 C 18,3 C 18,3 C 5,5 C 61 % 68 % 100 % 1021,3 hPa 0,0 l/m 3,1 km/h (1 Bft) N-NO 22 5 min 1,0 UV-I 5,5 C 18,3 C 0,0 km/h (0 Bft)
08.10.2012 14:25 12,7 C 16,8 C 13,1 C 18,6 C 18,6 C 5,9 C 60 % 67 % 100 % 1021,3 hPa 0,0 l/m 2,3 km/h (1 Bft) SW 225 5 min 1,2 UV-I 5,1 C 18,6 C 0,0 km/h (0 Bft)
08.10.2012 14:30 12,9 C 16,8 C 13,1 C 19,3 C 19,3 C 6,4 C 61 % 67 % 100 % 1021,3 hPa 0,0 l/m 1,6 km/h (1 Bft) N-NO 22 5 min 1,2 UV-I 5,6 C 19,3 C 2,4 km/h (1 Bft)
08.10.2012 14:35 12,9 C 16,8 C 13,3 C 19,7 C 19,7 C 6,8 C 60 % 67 % 100 % 1021,3 hPa 0,0 l/m 2,7 km/h (1 Bft) W-SW 247 5 min 0,9 UV-I 5,3 C 19,7 C 3,7 km/h (1 Bft)
08.10.2012 14:40 12,9 C 16,8 C 13,4 C 19,7 C 19,7 C 6,8 C 61 % 67 % 100 % 1021,1 hPa 0,0 l/m 3,2 km/h (1 Bft) SW 225 5 min 0,9 UV-I 5,6 C 19,7 C 13,0 km/h (3 Bft)
08.10.2012 14:45 13,1 C 16,7 C 13,5 C 19,7 C 19,7 C 6,6 C 58 % 67 % 100 % 1021,1 hPa 0,0 l/m 2,9 km/h (1 Bft) W-SW 247 5 min 0,8 UV-I 5,0 C 19,7 C 4,0 km/h (1 Bft)
08.10.2012 14:50 13,1 C 16,7 C 13,6 C 19,4 C 19,4 C 6,3 C 58 % 67 % 100 % 1021,1 hPa 0,0 l/m 3,1 km/h (1 Bft) S 180 5 min 0,8 UV-I 5,0 C 19,4 C 0,0 km/h (0 Bft)
08.10.2012 14:55 13,3 C 16,8 C 13,6 C 19,3 C 19,3 C 6,0 C 59 % 66 % 100 % 1021,1 hPa 0,0 l/m 2,9 km/h (1 Bft) W-SW 247 5 min 0,8 UV-I 5,5 C 19,3 C 7,1 km/h (2 Bft)
08.10.2012 15:00 13,5 C 16,8 C 13,7 C 19,1 C 19,1 C 5,6 C 58 % 67 % 100 % 1021,2 hPa 0,0 l/m 3,2 km/h (1 Bft) SW 225 5 min 0,8 UV-I 5,4 C 19,1 C 6,9 km/h (2 Bft)
08.10.2012 15:05 13,7 C 16,8 C 13,7 C 18,8 C 18,8 C 5,1 C 57 % 65 % 100 % 1021,2 hPa 0,0 l/m 3,4 km/h (1 Bft) S 180 5 min 0,8 UV-I 5,3 C 18,8 C 3,7 km/h (1 Bft)
08.10.2012 15:10 13,6 C 16,8 C 13,7 C 19,0 C 19,0 C 5,4 C 58 % 63 % 100 % 1021,2 hPa 0,0 l/m 2,3 km/h (1 Bft) O 90 5 min 0,7 UV-I 5,5 C 19,0 C 0,0 km/h (0 Bft)
08.10.2012 15:15 13,5 C 16,8 C 13,5 C 18,6 C 18,6 C 5,1 C 57 % 65 % 100 % 1021,2 hPa 0,0 l/m 1,6 km/h (1 Bft) SW 225 5 min 0,7 UV-I 5,2 C 18,6 C 3,7 km/h (1 Bft)
08.10.2012 15:20 13,6 C 16,8 C 13,5 C 18,2 C 18,2 C 4,6 C 58 % 65 % 100 % 1020,7 hPa 0,0 l/m 1,4 km/h (1 Bft) S-SW 202 5 min 0,7 UV-I 5,5 C 18,2 C 0,0 km/h (0 Bft)
08.10.2012 15:25 13,9 C 16,8 C 13,5 C 18,2 C 18,2 C 4,3 C 57 % 63 % 100 % 1020,7 hPa 0,0 l/m 1,3 km/h (1 Bft) SW 225 5 min 0,7 UV-I 5,5 C 18,2 C 2,4 km/h (1 Bft)
08.10.2012 15:30 14,0 C 16,8 C 13,5 C 18,4 C 18,4 C 4,4 C 57 % 62 % 100 % 1020,7 hPa 0,0 l/m 1,1 km/h (1 Bft) SW 225 5 min 0,7 UV-I 5,6 C 18,4 C 9,8 km/h (2 Bft)
08.10.2012 15:35 14,4 C 16,8 C 13,5 C 18,4 C 18,4 C 4,0 C 55 % 63 % 100 % 1020,7 hPa 0,0 l/m 1,9 km/h (1 Bft) SW 225 5 min 0,6 UV-I 5,5 C 18,4 C 4,8 km/h (1 Bft)
08.10.2012 15:40 14,7 C 16,8 C 13,5 C 18,4 C 18,4 C 3,7 C 55 % 62 % 97 % 1020,6 hPa 0,0 l/m 2,6 km/h (1 Bft) SW 225 5 min 0,6 UV-I 5,8 C 18,4 C 4,2 km/h (1 Bft)
08.10.2012 15:45 14,8 C 16,8 C 13,5 C 18,4 C 18,4 C 3,6 C 55 % 63 % 95 % 1020,6 hPa 0,0 l/m 1,3 km/h (1 Bft) SW 225 5 min 0,5 UV-I 5,8 C 18,4 C 1,9 km/h (1 Bft)
08.10.2012 15:50 15,0 C 16,8 C 13,5 C 18,4 C 18,4 C 3,4 C 55 % 64 % 89 % 1020,6 hPa 0,0 l/m 0,8 km/h (0 Bft) S 180 5 min 0,5 UV-I 6,0 C 18,4 C 1,6 km/h (1 Bft)
08.10.2012 15:55 15,2 C 16,8 C 13,4 C 18,3 C 18,3 C 3,1 C 54 % 64 % 82 % 1020,6 hPa 0,0 l/m 1,0 km/h (0 Bft) SW 225 0 min 0,5 UV-I 6,0 C 18,3 C 5,0 km/h (1 Bft)
08.10.2012 16:00 15,3 C 16,9 C 13,3 C 18,2 C 18,2 C 2,9 C 54 % 65 % 76 % 1020,4 hPa 0,0 l/m 1,0 km/h (0 Bft) W-SW 247 0 min 0,5 UV-I 6,0 C 18,2 C 3,1 km/h (1 Bft)
08.10.2012 16:05 15,2 C 16,9 C 13,0 C 17,2 C 17,2 C 2,0 C 53 % 65 % 53 % 1020,4 hPa 0,0 l/m 0,8 km/h (0 Bft) S-SW 202 0 min 0,4 UV-I 5,7 C 17,2 C 0,0 km/h (0 Bft)
08.10.2012 16:10 15,2 C 16,9 C 12,8 C 16,5 C 16,5 C 1,3 C 53 % 64 % 34 % 1020,4 hPa 0,0 l/m 0,5 km/h (0 Bft) W-SW 247 0 min 0,3 UV-I 5,7 C 16,5 C 1,9 km/h (1 Bft)
08.10.2012 16:15 14,9 C 16,9 C 12,7 C 15,7 C 15,7 C 0,8 C 52 % 65 % 21 % 1020,4 hPa 0,0 l/m 0,6 km/h (0 Bft) W-NW 292 0 min 0,3 UV-I 5,1 C 15,7 C 1,8 km/h (1 Bft)
08.10.2012 16:20 14,8 C 17,0 C 12,7 C 15,7 C 15,7 C 0,9 C 53 % 66 % 24 % 1020,4 hPa 0,0 l/m 1,0 km/h (0 Bft) S-SW 202 0 min 0,2 UV-I 5,3 C 15,7 C 1,8 km/h (1 Bft)
08.10.2012 16:25 14,9 C 17,0 C 12,8 C 16,4 C 16,4 C 1,5 C 53 % 65 % 39 % 1020,4 hPa 0,0 l/m 1,4 km/h (1 Bft) W-SW 247 0 min 0,2 UV-I 5,4 C 16,4 C 0,0 km/h (0 Bft)
08.10.2012 16:30 14,8 C 17,0 C 12,9 C 16,7 C 16,7 C 1,9 C 53 % 66 % 50 % 1020,4 hPa 0,0 l/m 2,4 km/h (1 Bft) SW 225 0 min 0,2 UV-I 5,3 C 16,7 C 5,5 km/h (1 Bft)
08.10.2012 16:35 14,5 C 17,0 C 12,8 C 16,1 C 16,1 C 1,6 C 53 % 66 % 42 % 1020,4 hPa 0,0 l/m 2,7 km/h (1 Bft) O-SO 112 0 min 0,1 UV-I 5,0 C 16,1 C 1,8 km/h (1 Bft)
08.10.2012 16:40 14,3 C 17,0 C 12,8 C 16,2 C 16,2 C 1,9 C 53 % 65 % 50 % 1020,1 hPa 0,0 l/m 2,3 km/h (1 Bft) SW 225 0 min 0,1 UV-I 4,9 C 16,2 C 2,9 km/h (1 Bft)
08.10.2012 16:45 14,0 C 17,0 C 12,9 C 16,1 C 16,1 C 2,1 C 54 % 65 % 55 % 1020,1 hPa 0,0 l/m 1,3 km/h (1 Bft) W 270 0 min 0,1 UV-I 4,8 C 16,1 C 4,0 km/h (1 Bft)
08.10.2012 16:50 13,9 C 17,0 C 12,8 C 16,5 C 16,5 C 2,6 C 54 % 65 % 68 % 1020,1 hPa 0,0 l/m 1,9 km/h (1 Bft) S 180 5 min 0,0 UV-I 4,7 C 16,5 C 2,3 km/h (1 Bft)
08.10.2012 16:55 13,7 C 17,0 C 12,9 C 17,0 C 17,0 C 3,3 C 55 % 64 % 87 % 1020,1 hPa 0,0 l/m 1,6 km/h (1 Bft) S-SW 202 5 min 0,0 UV-I 4,8 C 17,0 C 2,4 km/h (1 Bft)
08.10.2012 17:00 13,7 C 17,0 C 12,8 C 16,8 C 16,8 C 3,1 C 54 % 65 % 82 % 1019,9 hPa 0,0 l/m 1,9 km/h (1 Bft) SW 225 5 min 0,0 UV-I 4,6 C 16,8 C 4,5 km/h (1 Bft)
08.10.2012 17:05 13,5 C 17,0 C 12,8 C 16,7 C 16,7 C 3,2 C 55 % 64 % 84 % 1019,9 hPa 0,0 l/m 1,6 km/h (1 Bft) SW 225 5 min 0,0 UV-I 4,6 C 16,7 C 0,0 km/h (0 Bft)
08.10.2012 17:10 13,5 C 17,0 C 12,5 C 16,5 C 16,5 C 3,0 C 55 % 65 % 79 % 1019,9 hPa 0,0 l/m 0,5 km/h (0 Bft) W-SW 247 5 min 0,0 UV-I 4,6 C 16,5 C 0,0 km/h (0 Bft)
08.10.2012 17:15 13,2 C 17,0 C 12,3 C 16,1 C 16,1 C 2,9 C 55 % 65 % 76 % 1019,9 hPa 0,0 l/m 1,0 km/h (0 Bft) NO 45 5 min 0,0 UV-I 4,4 C 16,1 C 3,4 km/h (1 Bft)
08.10.2012 17:20 13,1 C 17,0 C 12,3 C 15,7 C 15,7 C 2,6 C 56 % 65 % 68 % 1019,5 hPa 0,0 l/m 1,4 km/h (1 Bft) S 180 5 min 0,0 UV-I 4,5 C 15,7 C 1,8 km/h (1 Bft)
08.10.2012 17:25 12,8 C 17,0 C 12,1 C 14,8 C 14,8 C 2,0 C 56 % 65 % 53 % 1019,5 hPa 0,0 l/m 1,0 km/h (0 Bft) S 180 5 min 0,0 UV-I 4,2 C 14,8 C 0,0 km/h (0 Bft)
08.10.2012 17:30 12,7 C 17,0 C 11,9 C 14,2 C 14,2 C 1,5 C 57 % 66 % 39 % 1019,5 hPa 0,0 l/m 0,3 km/h (0 Bft) NW 315 5 min 0,0 UV-I 4,4 C 14,2 C 0,0 km/h (0 Bft)
08.10.2012 17:35 12,5 C 17,0 C 11,6 C 13,1 C 13,1 C 0,6 C 58 % 67 % 16 % 1019,5 hPa 0,0 l/m 0,0 km/h (0 Bft) S 180 0 min 0,0 UV-I 4,5 C 13,1 C 0,0 km/h (0 Bft)
08.10.2012 17:40 12,2 C 17,0 C 11,5 C 12,5 C 12,5 C 0,3 C 58 % 68 % 8 % 1018,9 hPa 0,0 l/m 0,0 km/h (0 Bft) O-NO 67 0 min 0,0 UV-I 4,2 C 12,5 C 0,0 km/h (0 Bft)
08.10.2012 17:45 11,9 C 17,0 C 11,1 C 11,8 C 11,5 C 0,0 C 59 % 69 % 0 % 1018,9 hPa 0,0 l/m 0,0 km/h (0 Bft) O-NO 67 0 min 0,0 UV-I 4,1 C 11,5 C 0,0 km/h (0 Bft)
08.10.2012 17:50 11,6 C 17,0 C 10,9 C 11,4 C 11,1 C 0,0 C 62 % 69 % 0 % 1018,9 hPa 0,0 l/m 0,0 km/h (0 Bft) O-NO 67 0 min 0,0 UV-I 4,6 C 11,1 C 0,0 km/h (0 Bft)
08.10.2012 17:55 11,3 C 17,0 C 10,7 C 11,0 C 10,3 C 0,0 C 62 % 70 % 0 % 1018,9 hPa 0,0 l/m 0,0 km/h (0 Bft) O 90 0 min 0,0 UV-I 4,3 C 10,3 C 0,0 km/h (0 Bft)
08.10.2012 18:00 10,9 C 17,1 C 10,4 C 10,6 C 9,9 C 0,0 C 62 % 70 % 0 % 1018,9 hPa 0,0 l/m 0,0 km/h (0 Bft) O-NO 67 0 min 0,0 UV-I 3,9 C 9,9 C 0,0 km/h (0 Bft)
08.10.2012 18:05 10,7 C 17,1 C 10,3 C 10,3 C 9,5 C 0,0 C 64 % 72 % 0 % 1018,9 hPa 0,0 l/m 0,0 km/h (0 Bft) O-NO 67 0 min 0,0 UV-I 4,2 C 9,5 C 0,0 km/h (0 Bft)
08.10.2012 18:10 10,4 C 17,1 C 10,0 C 10,0 C 9,2 C 0,0 C 66 % 73 % 0 % 1018,9 hPa 0,0 l/m 0,0 km/h (0 Bft) O-NO 67 0 min 0,0 UV-I 4,3 C 9,2 C 0,0 km/h (0 Bft)
08.10.2012 18:15 10,0 C 17,1 C 9,7 C 9,6 C 8,8 C 0,0 C 67 % 74 % 0 % 1018,9 hPa 0,0 l/m 0,0 km/h (0 Bft) O-NO 67 0 min 0,0 UV-I 4,2 C 8,8 C 0,0 km/h (0 Bft)
08.10.2012 18:20 9,9 C 17,1 C 9,6 C 9,4 C 8,5 C 0,0 C 68 % 74 % 0 % 1018,8 hPa 0,0 l/m 0,0 km/h (0 Bft) O-NO 67 0 min 0,0 UV-I 4,3 C 8,5 C 0,0 km/h (0 Bft)
08.10.2012 18:25 9,6 C 17,1 C 9,5 C 9,1 C 8,0 C 0,0 C 68 % 75 % 0 % 1018,8 hPa 0,0 l/m 0,0 km/h (0 Bft) O-NO 67 0 min 0,0 UV-I 4,0 C 8,0 C 0,0 km/h (0 Bft)
08.10.2012 18:30 9,4 C 17,1 C 9,3 C 8,8 C 7,7 C 0,0 C 68 % 75 % 0 % 1018,8 hPa 0,0 l/m 0,0 km/h (0 Bft) O-NO 67 0 min 0,0 UV-I 3,8 C 7,7 C 0,0 km/h (0 Bft)
08.10.2012 18:35 9,1 C 17,1 C 9,1 C 8,5 C 7,4 C 0,0 C 70 % 76 % 0 % 1018,8 hPa 0,0 l/m 0,0 km/h (0 Bft) O-NO 67 0 min 0,0 UV-I 3,9 C 7,4 C 0,0 km/h (0 Bft)
08.10.2012 18:46 8,7 C 17,1 C 8,7 C 8,1 C 6,8 C 0,0 C 72 % 77 % 0 % 1018,8 hPa 0,0 l/m 0,0 km/h (0 Bft) N 0 0 min 0,0 UV-I 3,9 C 6,8 C 0,0 km/h (0 Bft)
08.10.2012 18:55 8,3 C 17,3 C 8,3 C 7,7 C 6,4 C 0,0 C 74 % 78 % 0 % 1018,8 hPa 0,0 l/m 0,0 km/h (0 Bft) O-NO 67 0 min 0,0 UV-I 3,9 C 6,4 C 0,0 km/h (0 Bft)
08.10.2012 19:00 8,2 C 17,3 C 8,3 C 7,5 C 6,1 C 0,0 C 75 % 79 % 0 % 1018,6 hPa 0,0 l/m 0,0 km/h (0 Bft) O-NO 67 0 min 0,0 UV-I 4,0 C 6,1 C 0,0 km/h (0 Bft)
08.10.2012 19:05 7,9 C 17,2 C 8,0 C 7,2 C 5,9 C 0,0 C 76 % 80 % 0 % 1018,6 hPa 0,0 l/m 0,0 km/h (0 Bft) W-SW 247 0 min 0,0 UV-I 3,9 C 5,9 C 0,0 km/h (0 Bft)
08.10.2012 19:10 7,9 C 17,3 C 8,1 C 7,2 C 5,7 C 0,0 C 76 % 80 % 0 % 1018,6 hPa 0,0 l/m 0,0 km/h (0 Bft) W 270 0 min 0,0 UV-I 3,9 C 5,7 C 0,0 km/h (0 Bft)
08.10.2012 19:15 7,5 C 17,3 C 7,8 C 6,8 C 5,5 C 0,0 C 77 % 80 % 0 % 1018,6 hPa 0,0 l/m 0,0 km/h (0 Bft) O-SO 112 0 min 0,0 UV-I 3,7 C 5,5 C 0,0 km/h (0 Bft)
08.10.2012 19:20 7,4 C 17,3 C 7,6 C 6,7 C 5,4 C 0,0 C 78 % 80 % 0 % 1018,6 hPa 0,0 l/m 0,0 km/h (0 Bft) O 90 0 min 0,0 UV-I 3,8 C 5,4 C 0,0 km/h (0 Bft)
08.10.2012 19:25 7,1 C 17,3 C 7,5 C 6,5 C 5,2 C 0,0 C 78 % 81 % 0 % 1018,6 hPa 0,0 l/m 0,0 km/h (0 Bft) O 90 0 min 0,0 UV-I 3,5 C 5,2 C 0,0 km/h (0 Bft)
08.10.2012 19:30 7,0 C 17,3 C 7,5 C 6,4 C 5,1 C 0,0 C 79 % 82 % 0 % 1018,6 hPa 0,0 l/m 0,0 km/h (0 Bft) O 90 0 min 0,0 UV-I 3,6 C 5,1 C 0,0 km/h (0 Bft)
08.10.2012 19:35 6,7 C 17,3 C 7,2 C 6,1 C 4,8 C 0,0 C 79 % 82 % 0 % 1018,6 hPa 0,0 l/m 0,0 km/h (0 Bft) S 180 0 min 0,0 UV-I 3,3 C 4,8 C 0,0 km/h (0 Bft)
08.10.2012 19:40 6,7 C 17,4 C 7,2 C 6,0 C 4,7 C 0,0 C 79 % 83 % 0 % 1017,8 hPa 0,0 l/m 0,0 km/h (0 Bft) S 180 0 min 0,0 UV-I 3,3 C 4,7 C 0,0 km/h (0 Bft)
08.10.2012 19:45 6,4 C 17,4 C 7,1 C 5,8 C 4,6 C 0,0 C 80 % 83 % 0 % 1017,8 hPa 0,0 l/m 0,0 km/h (0 Bft) W 270 0 min 0,0 UV-I 3,2 C 4,6 C 0,0 km/h (0 Bft)
08.10.2012 19:50 6,3 C 17,3 C 7,1 C 5,8 C 4,7 C 0,0 C 80 % 83 % 0 % 1017,8 hPa 0,0 l/m 0,0 km/h (0 Bft) N-NW 337 0 min 0,0 UV-I 3,1 C 4,7 C 0,0 km/h (0 Bft)
08.10.2012 19:55 6,0 C 17,4 C 6,9 C 5,6 C 4,8 C 0,0 C 81 % 84 % 0 % 1017,8 hPa 0,0 l/m 0,0 km/h (0 Bft) N-NW 337 0 min 0,0 UV-I 3,0 C 4,8 C 0,0 km/h (0 Bft)
08.10.2012 20:00 5,8 C 17,4 C 6,9 C 5,5 C 4,8 C 0,0 C 81 % 84 % 0 % 1018,1 hPa 0,0 l/m 0,0 km/h (0 Bft) N-NW 337 0 min 0,0 UV-I 2,8 C 4,8 C 0,0 km/h (0 Bft)
08.10.2012 20:05 5,6 C 17,4 C 6,7 C 5,3 C 4,7 C 0,0 C 81 % 84 % 0 % 1018,1 hPa 0,0 l/m 0,0 km/h (0 Bft) SW 225 0 min 0,0 UV-I 2,6 C 4,7 C 0,0 km/h (0 Bft)
08.10.2012 20:10 5,6 C 17,3 C 6,7 C 5,3 C 4,6 C 0,0 C 82 % 84 % 0 % 1018,1 hPa 0,0 l/m 0,0 km/h (0 Bft) W 270 0 min 0,0 UV-I 2,8 C 4,6 C 0,0 km/h (0 Bft)
08.10.2012 20:15 5,5 C 17,3 C 6,6 C 5,1 C 4,4 C 0,0 C 82 % 85 % 0 % 1018,1 hPa 0,0 l/m 0,0 km/h (0 Bft) W 270 0 min 0,0 UV-I 2,7 C 4,4 C 0,0 km/h (0 Bft)
08.10.2012 20:20 5,3 C 17,3 C 6,6 C 5,0 C 4,4 C 0,0 C 82 % 85 % 0 % 1017,6 hPa 0,0 l/m 0,0 km/h (0 Bft) SW 225 0 min 0,0 UV-I 2,5 C 4,4 C 0,0 km/h (0 Bft)
08.10.2012 20:25 5,1 C 17,3 C 6,4 C 4,9 C 4,4 C 0,0 C 82 % 85 % 0 % 1017,6 hPa 0,0 l/m 0,0 km/h (0 Bft) W 270 0 min 0,0 UV-I 2,3 C 4,4 C 0,0 km/h (0 Bft)
08.10.2012 20:30 5,1 C 17,3 C 6,4 C 4,9 C 4,4 C 0,0 C 83 % 85 % 0 % 1017,6 hPa 0,0 l/m 0,0 km/h (0 Bft) W 270 0 min 0,0 UV-I 2,5 C 4,4 C 0,0 km/h (0 Bft)
08.10.2012 20:35 4,9 C 17,3 C 6,3 C 4,7 C 4,3 C 0,0 C 83 % 85 % 0 % 1017,6 hPa 0,0 l/m 0,0 km/h (0 Bft) W 270 0 min 0,0 UV-I 2,3 C 4,3 C 0,0 km/h (0 Bft)
08.10.2012 20:40 4,9 C 17,3 C 6,3 C 4,7 C 4,2 C 0,0 C 83 % 85 % 0 % 1017,4 hPa 0,0 l/m 0,0 km/h (0 Bft) W 270 0 min 0,0 UV-I 2,3 C 4,2 C 0,0 km/h (0 Bft)
08.10.2012 20:45 4,7 C 17,3 C 6,3 C 4,5 C 4,1 C 0,0 C 83 % 86 % 0 % 1017,4 hPa 0,0 l/m 0,0 km/h (0 Bft) SW 225 0 min 0,0 UV-I 2,1 C 4,1 C 0,0 km/h (0 Bft)
08.10.2012 20:50 4,7 C 17,3 C 6,2 C 4,5 C 4,1 C 0,0 C 83 % 86 % 0 % 1017,4 hPa 0,0 l/m 0,0 km/h (0 Bft) W-SW 247 0 min 0,0 UV-I 2,1 C 4,1 C 0,0 km/h (0 Bft)
08.10.2012 20:55 4,4 C 17,4 C 6,2 C 4,3 C 4,1 C 0,0 C 83 % 86 % 0 % 1017,4 hPa 0,0 l/m 0,0 km/h (0 Bft) W 270 0 min 0,0 UV-I 1,8 C 4,1 C 0,0 km/h (0 Bft)
08.10.2012 21:00 4,5 C 17,4 C 6,1 C 4,4 C 4,1 C 0,0 C 84 % 86 % 0 % 1017,3 hPa 0,0 l/m 0,0 km/h (0 Bft) W-SW 247 0 min 0,0 UV-I 2,0 C 4,1 C 0,0 km/h (0 Bft)
08.10.2012 21:05 4,3 C 17,4 C 6,1 C 4,3 C 4,2 C 0,0 C 84 % 86 % 0 % 1017,3 hPa 0,0 l/m 0,0 km/h (0 Bft) W-SW 247 0 min 0,0 UV-I 1,8 C 4,2 C 0,0 km/h (0 Bft)
08.10.2012 21:10 4,2 C 17,4 C 6,0 C 4,2 C 4,2 C 0,0 C 84 % 86 % 0 % 1017,3 hPa 0,0 l/m 0,0 km/h (0 Bft) W-SW 247 0 min 0,0 UV-I 1,7 C 4,2 C 0,0 km/h (0 Bft)
08.10.2012 21:15 4,2 C 17,4 C 6,1 C 4,3 C 4,3 C 0,1 C 84 % 86 % 0 % 1017,3 hPa 0,0 l/m 0,0 km/h (0 Bft) S-SW 202 0 min 0,0 UV-I 1,7 C 4,3 C 0,0 km/h (0 Bft)
08.10.2012 21:20 4,1 C 17,4 C 6,0 C 4,3 C 4,3 C 0,2 C 84 % 87 % 0 % 1017,6 hPa 0,0 l/m 0,0 km/h (0 Bft) W 270 0 min 0,0 UV-I 1,6 C 4,3 C 0,0 km/h (0 Bft)
08.10.2012 21:25 4,1 C 17,3 C 6,0 C 4,3 C 4,3 C 0,2 C 85 % 87 % 0 % 1017,6 hPa 0,0 l/m 0,0 km/h (0 Bft) W 270 0 min 0,0 UV-I 1,8 C 4,3 C 0,0 km/h (0 Bft)
08.10.2012 21:30 4,0 C 17,4 C 6,0 C 4,3 C 4,3 C 0,3 C 85 % 87 % 0 % 1017,6 hPa 0,0 l/m 0,0 km/h (0 Bft) W 270 0 min 0,0 UV-I 1,7 C 4,3 C 0,0 km/h (0 Bft)
08.10.2012 21:35 4,0 C 17,4 C 5,9 C 4,3 C 4,3 C 0,3 C 85 % 87 % 0 % 1017,6 hPa 0,0 l/m 0,0 km/h (0 Bft) W 270 0 min 0,0 UV-I 1,7 C 4,3 C 0,0 km/h (0 Bft)
08.10.2012 21:40 4,0 C 17,4 C 5,9 C 4,2 C 4,2 C 0,2 C 85 % 87 % 0 % 1016,8 hPa 0,0 l/m 0,0 km/h (0 Bft) W 270 0 min 0,0 UV-I 1,7 C 4,2 C 0,0 km/h (0 Bft)
08.10.2012 21:45 3,9 C 17,4 C 5,8 C 4,2 C 4,2 C 0,3 C 85 % 87 % 0 % 1016,8 hPa 0,0 l/m 0,0 km/h (0 Bft) W 270 0 min 0,0 UV-I 1,6 C 4,2 C 0,0 km/h (0 Bft)
08.10.2012 21:50 3,9 C 17,4 C 5,7 C 4,1 C 4,1 C 0,2 C 85 % 87 % 0 % 1016,8 hPa 0,0 l/m 0,0 km/h (0 Bft) W 270 0 min 0,0 UV-I 1,6 C 4,1 C 0,0 km/h (0 Bft)
08.10.2012 21:55 3,9 C 17,3 C 5,6 C 4,0 C 4,0 C 0,1 C 85 % 87 % 0 % 1016,8 hPa 0,0 l/m 0,0 km/h (0 Bft) W 270 0 min 0,0 UV-I 1,6 C 4,0 C 0,0 km/h (0 Bft)
08.10.2012 22:00 3,9 C 17,3 C 5,7 C 3,9 C 3,8 C 0,0 C 85 % 87 % 0 % 1016,8 hPa 0,0 l/m 0,0 km/h (0 Bft) NW 315 0 min 0,0 UV-I 1,6 C 3,8 C 0,0 km/h (0 Bft)
08.10.2012 22:05 3,8 C 17,3 C 5,5 C 3,8 C 3,8 C 0,0 C 86 % 87 % 0 % 1016,8 hPa 0,0 l/m 0,0 km/h (0 Bft) NW 315 0 min 0,0 UV-I 1,7 C 3,8 C 0,0 km/h (0 Bft)
08.10.2012 22:10 3,9 C 17,3 C 5,5 C 3,9 C 3,8 C 0,0 C 86 % 87 % 0 % 1016,8 hPa 0,0 l/m 0,0 km/h (0 Bft) NW 315 0 min 0,0 UV-I 1,8 C 3,8 C 0,0 km/h (0 Bft)
08.10.2012 22:15 3,9 C 17,3 C 5,5 C 3,8 C 3,7 C 0,0 C 86 % 87 % 0 % 1016,8 hPa 0,0 l/m 0,0 km/h (0 Bft) NW 315 0 min 0,0 UV-I 1,8 C 3,7 C 0,0 km/h (0 Bft)
08.10.2012 22:20 3,7 C 17,3 C 5,4 C 3,7 C 3,7 C 0,0 C 86 % 87 % 0 % 1016,6 hPa 0,0 l/m 0,0 km/h (0 Bft) NW 315 0 min 0,0 UV-I 1,6 C 3,7 C 0,0 km/h (0 Bft)
08.10.2012 22:25 3,6 C 17,3 C 5,3 C 3,5 C 3,4 C 0,0 C 86 % 88 % 0 % 1016,6 hPa 0,0 l/m 0,0 km/h (0 Bft) NW 315 0 min 0,0 UV-I 1,5 C 3,4 C 0,0 km/h (0 Bft)
08.10.2012 22:30 3,6 C 17,3 C 5,3 C 3,5 C 3,2 C 0,0 C 86 % 88 % 0 % 1016,6 hPa 0,0 l/m 0,0 km/h (0 Bft) W-SW 247 0 min 0,0 UV-I 1,5 C 3,2 C 0,0 km/h (0 Bft)
08.10.2012 22:35 3,5 C 17,3 C 5,2 C 3,4 C 3,2 C 0,0 C 86 % 88 % 0 % 1016,6 hPa 0,0 l/m 0,0 km/h (0 Bft) W-SW 247 0 min 0,0 UV-I 1,4 C 3,2 C 0,0 km/h (0 Bft)
08.10.2012 22:40 3,5 C 17,3 C 5,1 C 3,4 C 3,2 C 0,0 C 86 % 88 % 0 % 1016,4 hPa 0,0 l/m 0,0 km/h (0 Bft) W-SW 247 0 min 0,0 UV-I 1,4 C 3,2 C 0,0 km/h (0 Bft)
08.10.2012 22:45 3,5 C 17,3 C 5,1 C 3,3 C 3,0 C 0,0 C 86 % 88 % 0 % 1016,4 hPa 0,0 l/m 0,0 km/h (0 Bft) W-SW 247 0 min 0,0 UV-I 1,4 C 3,0 C 0,0 km/h (0 Bft)
08.10.2012 22:50 3,3 C 17,3 C 5,1 C 3,2 C 2,9 C 0,0 C 86 % 88 % 0 % 1016,4 hPa 0,0 l/m 0,0 km/h (0 Bft) W-SW 247 0 min 0,0 UV-I 1,2 C 2,9 C 0,0 km/h (0 Bft)
08.10.2012 22:55 3,3 C 17,2 C 4,9 C 3,2 C 2,9 C 0,0 C 87 % 88 % 0 % 1016,4 hPa 0,0 l/m 0,0 km/h (0 Bft) NW 315 0 min 0,0 UV-I 1,3 C 2,9 C 0,0 km/h (0 Bft)
08.10.2012 23:00 3,2 C 17,2 C 4,8 C 3,1 C 2,8 C 0,0 C 87 % 88 % 0 % 1016,2 hPa 0,0 l/m 0,0 km/h (0 Bft) NW 315 0 min 0,0 UV-I 1,2 C 2,8 C 0,0 km/h (0 Bft)
08.10.2012 23:05 3,2 C 17,2 C 4,7 C 3,0 C 2,5 C 0,0 C 87 % 88 % 0 % 1016,2 hPa 0,0 l/m 0,0 km/h (0 Bft) W-NW 292 0 min 0,0 UV-I 1,2 C 2,5 C 0,0 km/h (0 Bft)
08.10.2012 23:10 3,1 C 17,2 C 4,6 C 2,9 C 2,4 C 0,0 C 87 % 88 % 0 % 1016,2 hPa 0,0 l/m 0,0 km/h (0 Bft) NW 315 0 min 0,0 UV-I 1,2 C 2,4 C 0,0 km/h (0 Bft)
08.10.2012 23:15 3,1 C 17,2 C 4,7 C 2,9 C 2,5 C 0,0 C 87 % 88 % 0 % 1016,2 hPa 0,0 l/m 0,0 km/h (0 Bft) NW 315 0 min 0,0 UV-I 1,2 C 2,5 C 0,0 km/h (0 Bft)
08.10.2012 23:20 3,1 C 17,2 C 4,7 C 2,9 C 2,5 C 0,0 C 87 % 88 % 0 % 1016,1 hPa 0,0 l/m 0,0 km/h (0 Bft) NW 315 0 min 0,0 UV-I 1,2 C 2,5 C 0,0 km/h (0 Bft)
08.10.2012 23:25 3,0 C 17,2 C 4,5 C 2,8 C 2,5 C 0,0 C 87 % 88 % 0 % 1016,1 hPa 0,0 l/m 0,0 km/h (0 Bft) NW 315 0 min 0,0 UV-I 1,1 C 2,5 C 0,0 km/h (0 Bft)
08.10.2012 23:30 2,9 C 17,2 C 4,5 C 2,7 C 2,4 C 0,0 C 87 % 88 % 0 % 1016,1 hPa 0,0 l/m 0,0 km/h (0 Bft) NW 315 0 min 0,0 UV-I 1,0 C 2,4 C 0,0 km/h (0 Bft)
08.10.2012 23:35 2,8 C 17,2 C 4,4 C 2,6 C 2,3 C 0,0 C 87 % 88 % 0 % 1016,1 hPa 0,0 l/m 0,0 km/h (0 Bft) W-SW 247 0 min 0,0 UV-I 0,9 C 2,3 C 0,0 km/h (0 Bft)
08.10.2012 23:40 2,7 C 17,2 C 4,5 C 2,6 C 2,3 C 0,0 C 87 % 88 % 0 % 1015,9 hPa 0,0 l/m 0,0 km/h (0 Bft) S 180 0 min 0,0 UV-I 0,8 C 2,3 C 0,0 km/h (0 Bft)
08.10.2012 23:45 2,7 C 17,2 C 4,2 C 2,6 C 2,4 C 0,0 C 87 % 88 % 0 % 1015,9 hPa 0,0 l/m 0,0 km/h (0 Bft) SO 135 0 min 0,0 UV-I 0,8 C 2,4 C 0,0 km/h (0 Bft)
08.10.2012 23:50 2,6 C 17,1 C 4,2 C 2,5 C 2,4 C 0,0 C 87 % 88 % 0 % 1015,9 hPa 0,0 l/m 0,0 km/h (0 Bft) W-SW 247 0 min 0,0 UV-I 0,7 C 2,4 C 0,0 km/h (0 Bft)
08.10.2012 23:55 2,6 C 17,1 C 4,3 C 2,5 C 2,4 C 0,0 C 87 % 89 % 0 % 1015,9 hPa 0,0 l/m 0,0 km/h (0 Bft) W-SW 247 0 min 0,0 UV-I 0,7 C 2,4 C 0,0 km/h (0 Bft)
_ Min-Zeit 23:50 11:10 23:45 23:50 23:35 00:00 16:15 15:30 00:00 23:40 - 17:35 - - - 00:00 23:50 23:35 03:45
Minimum _ 2,6 C 16,7 C 4,2 C 2,5 C 2,3 C 0,0 C 52 % 62 % 0 % 1015,9 hPa - 0,0 km/h (0 Bft) - - - 0,0 UV-I 0,7 C 2,3 C 0,0 km/h (0 Bft)
_ Max-Zeit 16:00 00:00 15:00 14:35 14:35 14:05 22:55 23:55 13:10 10:20 00:00 11:35 - - 13:10 12:55 12:05 14:35 14:40
Maximum _ 15,3 C 17,4 C 13,7 C 19,7 C 19,7 C 6,8 C 87 % 89 % 100 % 1023,6 hPa 0,0 l/m 6,4 km/h
SW (2 Bft)
- - 5 min 1,6 UV-I 6,3 C 19,7 C 13,0 km/h
SW (3 Bft)
Durchschnitt _ 8,5 C 17,1 C 9,0 C 9,5 C 9,2 C 1,0 C 76 % 81 % 23 % 1021,1 hPa #0,0 l/m 2,8 km/h (1 Bft) W-SW - #3:25 h 0,8 UV-I 4,3 C 9,1 C 3,8 km/h (1 Bft)
2012 www.wetterstation-wechselburg.de